Humidity-temperature Sensor

Selected Measurement Type: Relative Humidity

 
Relative Humidity [%]     6 entries per hour
Showing data from 9/18/2019 (00:00:00 Z) to 9/17/2019 (00:01:00 Z)
Previous Next [ Day | 3-Days | 7-Days ]
First Last
Prev [ Day | 3-Days | 7-Days ] Next
First Last

Start Time:     :
End Time:     :     
Time (in GMT) :00 :50 :40 :30 :20 :10
Previous Next [ Day | 3-Days | 7-Days ]
First Last
Prev [ Day | 3-Days | 7-Days ] Next
First Last


123 => good data
MM => data is determined as missing
-- => data not received/configured
Back to Top Back to Top
9/18/2019 00:00 to 23:10 70.95 70.93 71.61 71.26 71.07 70.79
9/17/2019 23:00 to 22:10 71.77 70.42 70.50 68.51 68.25 68.76
9/17/2019 22:00 to 21:10 69.74 68.45 68.57 68.33 70.77 70.56
9/17/2019 21:00 to 20:10 71.79 72.88 72.10 71.97 72.44 72.20
9/17/2019 20:00 to 19:10 71.48 72.16 72.20 72.01 71.15 73.37
9/17/2019 19:00 to 18:10 73.30 72.85 73.24 71.81 71.99 73.69
9/17/2019 18:00 to 17:10 72.18 72.22 71.22 70.52 71.95 71.75
9/17/2019 17:00 to 16:10 72.44 72.92 72.63 73.94 74.62 73.31
9/17/2019 16:00 to 15:10 71.75 71.20 73.04 73.39 72.20 73.00
9/17/2019 15:00 to 14:10 72.30 71.28 72.63 70.64 72.22 72.22
9/17/2019 14:00 to 13:10 72.34 73.08 72.92 73.47 72.67 72.20
9/17/2019 13:00 to 12:10 71.16 71.58 72.79 74.39 72.32 72.18
9/17/2019 12:00 to 11:10 72.71 73.20 73.39 73.12 73.49 72.55
9/17/2019 11:00 to 10:10 74.86 72.36 72.47 72.79 73.90 73.28
9/17/2019 10:00 to 9:10 73.94 74.66 75.03 74.59 72.49 73.41
9/17/2019 09:00 to 8:10 74.72 72.22 73.96 73.88 73.90 74.25
9/17/2019 08:00 to 7:10 72.20 72.14 72.73 73.63 71.71 73.59
9/17/2019 07:00 to 6:10 74.04 72.40 73.47 72.06 72.26 73.57
9/17/2019 06:00 to 5:10 72.87 71.46 72.94 71.56 73.00 74.10
9/17/2019 05:00 to 4:10 72.87 73.31 72.79 72.44 72.49 71.56
9/17/2019 04:00 to 3:10 71.77 71.99 73.39 73.06 73.06 72.69
9/17/2019 03:00 to 2:10 72.24 72.32 71.71 73.10 73.33 73.37
9/17/2019 02:00 to 1:10 72.67 72.18 74.49 73.14 74.82 72.98
9/17/2019 01:00 to 0:10 73.82 74.53 74.04 75.84 74.27 73.86